Regional Weather Roundup
Issued by NWS Wilmington, NC

Home | Current Version | Previous Version | Text Only | Print | Product List | Glossary On
Versions: 1 2 3 4 5 6 7 8 9 10 11 12 13 14 15 16 17 18 19 20 21 22 23 24 25 26 27 28 29 30 31 32 33 34 35 36 37 38 39 40 41 42 43 44 45 46 47 48 49 50
000
ASUS42 KILM 292113
RWRILM
RWRILM
REGIONAL HOURLY WEATHER ROUNDUP
NATIONAL WEATHER SERVICE WILMINGTON NC
500 PM EDT SAT APR 29 2017

NOTE: "FAIR" INDICATES FEW OR NO CLOUDS BELOW 12,000 FEET WITH NO
SIGNIFICANT WEATHER AND/OR OBSTRUCTIONS TO VISIBILITY.

...............WFO WILMINGTON COUNTY WARNING AREA...............

......COASTAL NC AND SC COUNTIES......

CITY           SKY/WX    TMP DP  RH WIND       PRES   REMARKS
WILMINGTON     MOSUNNY   83  70  64 S12       30.18F
N MYRTLE BEACH SUNNY     79  72  79 S16       30.19F
MYRTLE BEACH   MOSUNNY   81  72  74 S16G24    30.19F

......INLAND NC AND SC COUNTIES.......

CITY           SKY/WX    TMP DP  RH WIND       PRES   REMARKS
LUMBERTON      MOSUNNY   88  68  51 S10       30.13F HX  91
ELIZABETHTOWN  MOSUNNY   86  71  60 S9        30.15F HX  92
WHITEVILLE     MOSUNNY   84  71  64 SE13G18   30.16F
FLORENCE       PTSUNNY   87  68  52 S7        30.14F HX  90
DARLINGTON     PTSUNNY   88  68  51 S10       30.14F HX  91
KINGSTREE      FAIR      86  64  48 S8        30.15S HAZE
HARTSVILLE     FAIR      86  66  51 S9        30.14F
BENNETTSVILLE  FAIR      90  68  48 S6        30.13F HX  93
CONWAY         FAIR      82  72  69 SE10G17   30.16F HAZE
GEORGETOWN     FAIR      82  70  65 S10       30.19F
MARION         FAIR      88  64  45 S8        30.15S

....................REST OF NORTH CAROLINA......................

.........EASTERN NC.........

CITY           SKY/WX    TMP DP  RH WIND       PRES   REMARKS
CAPE HATTERAS  SUNNY     80  71  74 SW10G17   30.20S HAZE
JACKSONVILLE   MOSUNNY   88  71  57 S13       30.16S HX  94
MOREHEAD CITY  SUNNY     78  74  87 S16G24    30.19F
KENANSVILLE    SUNNY     88  68  51 SW3       30.15S HX  91
NEW BERN       MOSUNNY   86  73  65 S9        30.16F HX  93
ELIZABETH CITY SUNNY     86  73  65 SW14      30.11F HX  93

.........CENTRAL NC.........

CITY           SKY/WX    TMP DP  RH WIND       PRES   REMARKS
RALEIGH DURHAM PTSUNNY   88  70  55 SW12      30.13F HX  93
ROCKY MOUNT    MOSUNNY   87  70  56 SW8       30.13F HX  92
ROANOKE RAPIDS NOT AVBL
FAYETTEVILLE   PTSUNNY   89  68  49 S12       30.13F HX  93
HOFFMAN        PTSUNNY   86  66  52 S10       30.14S

.........WESTERN NC.........

CITY           SKY/WX    TMP DP  RH WIND       PRES   REMARKS
CHARLOTTE      PTSUNNY   84  70  62 SW7       30.14F
GREENSBORO     PTSUNNY   86  72  62 SW14      30.13F HX  92
HICKORY        NOT AVBL
BOONE          NOT AVBL
ASHEVILLE      NOT AVBL

.....................REST OF SOUTH CAROLINA.....................

.........EASTERN SC.........

CITY           SKY/WX    TMP DP  RH WIND       PRES   REMARKS
CHARLESTON     CLOUDY    82  67  60 S15       30.18F
BEAUFORT MCAS  MOSUNNY   82  72  71 S9        30.18F
HILTON HEAD    MOSUNNY   81  72  74 S12       30.19F

.........CENTRAL SC.........

CITY           SKY/WX    TMP DP  RH WIND       PRES   REMARKS
COLUMBIA       CLOUDY    89  64  43 S12       30.12F HX  90
ORANGEBURG     MOSUNNY   86  67  52 S13       30.14F
SUMTER SHAW    MOSUNNY   87  67  51 S13       30.12F

.........WESTERN SC.........

CITY           SKY/WX    TMP DP  RH WIND       PRES   REMARKS
GREENVILLE     NOT AVBL
ROCK HILL      PTSUNNY   84  70  62 SW9       30.15F
ANDERSON       CLOUDY    81  71  71 SE7       30.13F
CLEMSON        NOT AVBL
GREENWOOD      MOSUNNY   81  70  69 S6        30.15F


...................COASTAL AND OFFSHORE REPORTS..................

................LOCAL PIERS AND NC RESERVE................


STATION/POSITION TIME  SKY/WX   TEMP    WIND        PRES    VSBY
                                AIR SEA DIR/SP/G
                 (UTC)          (F)     (DEG/KT/KT) (MB)    (MI)
JOHNY MRCER PIER 2042            74 74  180/ 17/ 19 1021.3F
NC RESRV MASNBRO 1945            81     220/  6     1023.0
OCEAN CREST PIER NOT AVBL
SPRINGMAID  PIER 2048                               1021.5F


................COASTAL AND OFFSHORE BUOYS................


STATION/POSITION TIME  SKY/WX   TEMP    WIND        PRES    VSBY
                                AIR SEA DIR/SP/G
                 (UTC)          (F)     (DEG/KT/KT) (MB)    (MI)
DIMNDSHOAL 41025 2050            77 76  220/ 14/ 16 1022.8F
WVE H/P(F/S)=  4/ 4 SWL H/P/D(F/S/D)=  2/140/ 8

CAPE LOOKOUT     2100            77     200/ 13/ 16 1022.2F
ONSLOW BAY 41036 NOT AVBL
ONSLOW BAY 41064 2008            74     210/ 12/ 14 1023.3F
ONSLOW BAY 41159 2043               73                N/A
WVE H/P(F/S)=  4/ 5

MASNBO INL 41110 2029               72                N/A
WVE H/P(F/S)=  3/ 8

WILM HARBR 41108 2047               74                N/A
WVE H/P(F/S)=  3/ 6

27SE WRITB 41037 2008            75 74  200/  8/ 12 1023.0F
FRYING PAN 41013 2100            76 75  190/  6/  8 1023.0
SUNST NRSH 41024 2008            75 74  200/ 10/ 12 1022.6F
CAPRS NRSH 41029 2008            78 77  190/ 10/ 12 1022.7F
EDISTO     41004 2050            77 76  170/  6/  8 1022.6F
WVE H/P(F/S)=  3/ 6 SWL H/P/D(F/S/D)=  3/130/ 6



..........OFFSHORE BUOYS BEYOND 100 NM OFFSHORE...........
.....IN A TRIANGLE---HAT TO BERMUDA TO BAHAMAS TO HAT.....


STATION/POSITION TIME  SKY/WX   TEMP    WIND        PRES    VSBY
                                AIR SEA DIR/SP/G
                 (UTC)          (F)     (DEG/KT/KT) (MB)    (MI)
150E HAT   41001 2100            74 73  220/ 14/ 17 1024.0
W BERMUDA  41048 2100            73 73  190/  4/  6 1026.2
ATLANTIC S 41049 2050            73 73   50/ 12/ 14 1024.9R
WVE H/P(F/S)=  4/ 7 SWL H/P/D(F/S/D)=  3/130/ 7

E BAHAMAS  41046 2100            74 77   90/ 17/ 21 1021.1
NE BAHAMAS 41047 2100            76 77  100/ 16/ 19 1024.3
120E CANVRL41010 2100            78 78  120/ 14/ 17 1021.9

END



USA.gov is the U.S. government's official web portal to all federal, state and local government web resources and services.